User: anonymous   Login
Location: Caltech
(34.1382°N, 118.1253°W)
Time: 19:58:25
(UTC-07:00)
Language:

ADEOS II - Orbit

View from above orbital plane
View from above orbital plane
View from above satellite
View from above satellite

Ground track
Ground track

The orbit data is extracted from the following two-line orbital elements,

1 27597U 02056A   14295.50918274  .00000495  00000-0  22058-3 0  4342
2 27597 098.2778 296.5870 0000486 058.0962 052.6637 14.26887569617254
Epoch (UTC): 22 October 2014 12:13:13
Eccentricity: 0.0000486
inclination: 98.2778°
perigee height: 802 km
apogee height: 802 km
right ascension of ascending node: 296.5870°
argument of perigee: 58.0962°
revolutions per day: 14.26887569
mean anomaly at epoch: 52.6637°
orbit number at epoch: 61725

The dashed part of the orbit path shows where the satellite is in the earth's shadow,  

DLR